Regional Weather Roundup
Issued by NWS

Home | Current Version | Previous Version | Graphics & Text | Print | Product List | Glossary On
Versions: 1 2 3 4 5 6 7 8 9 10 11 12 13 14 15 16 17 18 19 20 21 22 23 24 25 26 27 28 29 30 31 32 33 34 35 36 37 38 39 40 41 42 43 44 45 46 47 48 49 50
055
ASUS43 KMKX 190521
RWRWI

WISCONSIN REGIONAL WEATHER ROUNDUP
NATIONAL WEATHER SERVICE MILWAUKEE/SULLIVAN WI
1200 AM CDT THU OCT 19 2017

NOTE: "FAIR" INDICATES FEW OR NO CLOUDS BELOW 12,000 FEET WITH NO
SIGNIFICANT WEATHER AND/OR OBSTRUCTIONS TO VISIBILITY.

WIZ001-002-006>008-014>016-023>028-190600-
NORTHWEST WISCONSIN

CITY           SKY/WX    TMP DP  RH WIND       PRES   REMARKS
SUPERIOR ARPT  PTCLDY    49  20  31 SW10      29.90R
ASHLAND        CLEAR     49  21  33 SW9       29.90R
HAYWARD        CLEAR     52  18  26 VRB6      29.94R
SIREN          CLOUDY    49  24  36 W8        29.97R
CUMBERLAND     CLOUDY    48  23  37 W13       29.97R
RICE LAKE      CLOUDY    49  26  40 CALM      29.98S
CHETEK         CLOUDY    51  26  38 W6        29.97S
LADYSMITH      CLOUDY    51  22  31 W13       29.97R
EAU CLAIRE     CLOUDY    51  25  36 W9        29.98R
MENOMONIE      CLOUDY    51  26  37 W7        30.00R
NEW RICHMOND   CLOUDY    47  26  43 W7        30.00S
OSCEOLA        CLOUDY    49  28  45 W7        30.02S
$$

WIZ003>005-009-010-017-018-190600-
NORTH CENTRAL WISCONSIN

CITY           SKY/WX    TMP DP  RH WIND       PRES   REMARKS
MANITOWISH WTR CLEAR     48  21  34 W8        29.89R
ARBOR VITAE    CLEAR     52  21  29 W9G16     29.89R
WOODRUFF       CLEAR     52  21  29 W9G16     29.89R
RHINELANDER    CLOUDY    51  22  31 W10       29.90R
EAGLE RIVER    CLEAR     52  17  25 W12       29.88R
LAND O LAKES   CLEAR     51  21  30 W6        29.88R
PHILLIPS       CLOUDY    51  22  32 W6        29.92R
TOMAHAWK       CLOUDY    49  20  30 W9        29.92R
MEDFORD        CLOUDY    51  24  35 W13G22    29.94R
MERRILL        CLOUDY    53  24  31 W10G18    29.93R
$$

WIZ029-030-035-036-043>047-190600-
CENTRAL WISCONSIN

CITY           SKY/WX    TMP DP  RH WIND       PRES   REMARKS
WAUSAU         CLOUDY    54  26  34 W15       29.92R
MOSINEE        CLOUDY    52  30  43 W12       29.95R
MARSHFIELD     CLOUDY    52  25  35 W10       29.95R
STEVENS POINT  CLOUDY    56  29  36 W8        29.95R
WAUPACA        PTCLDY    62  41  46 W10       29.92R
WAUTOMA        CLEAR     56  47  71 W9        29.95R
WISC RAPIDS    CLOUDY    57  31  37 NW12      29.97R
CAMP DOUGLAS   PTCLDY    58  31  36 NW15G24   29.98R
$$

WIZ011>013-019>022-031-037>040-048>050-190600-
NORTHEAST WISCONSIN

CITY           SKY/WX    TMP DP  RH WIND       PRES   REMARKS
ANTIGO         CLOUDY    53  26  34 NW21G29   29.91R
SHAWANO        PTCLDY    62  43  49 W12G20    29.88R
OCONTO         MOCLDY    60  46  61 W12G18    29.86R
STURGEON BAY   PTCLDY    62  47  57 SW14      29.86R
GREEN BAY      PTCLDY    60  48  64 W12       29.89R
MANITOWOC      MOCLDY    64  46  52 W18G24    29.88S
APPLETON       PTCLDY    59  43  55 SW13      29.89R
CLINTONVILLE   CLEAR     61  39  44 W12G20    29.90R
OSHKOSH        PTCLDY    60  46  59 SW9G18    29.91R
$$

WIZ032>034-041-042-053>061-190600-
SOUTHWEST WISCONSIN

CITY           SKY/WX    TMP DP  RH WIND       PRES   REMARKS
LA CROSSE      CLOUDY    58  29  33 NW14      30.01R
SPARTA         CLOUDY    57  27  31 NW7       30.01R
VIROQUA        CLOUDY    55  36  48 NW9       30.00R
BOSCOBEL       CLEAR     53  48  83 W3        30.00R
PRAIRIE DU CHI CLOUDY    54  46  75 W5        30.00R
PLATTEVILLE    CLOUDY    54  48  81 W6        30.01S
$$

WIZ056-057-062-063-064-067-068-190600-
SOUTH CENTRAL WISCONSIN

CITY           SKY/WX    TMP DP  RH WIND       PRES   REMARKS
REEDSBURG      CLEAR     58  47  67 SW8       29.97R
BARABOO/DELLS  CLEAR     57  46  64 W7        29.97R
LONE ROCK      PTCLDY    51  47  86 CALM      29.98R
MINERAL POINT  CLEAR     57  48  72 SW5       30.00R
MADISON        CLEAR     60  46  59 SW9       29.97S
MIDDLETON      CLEAR     61  46  56 W13G18    29.98R
WATERTOWN      CLEAR     59  45  59 SW12G17   29.96S
MONROE         CLEAR     54  43  66 SW14      29.99F
JANESVILLE     CLEAR     57  43  58 SW12      29.99F
$$

WIZ051-052-058>065-066-070>072-190600-
SOUTHEAST WISCONSIN

CITY           SKY/WX    TMP DP  RH WIND       PRES   REMARKS
MILWAUKEE      PTCLDY    60  44  55 SW14      29.97F
WAUKESHA       CLEAR     57  41  54 SW12      29.98F
MILWAUKEE/TIMM CLOUDY    61  39  44 SW14G20   29.97F
RACINE         CLEAR     60  44  55 SW9       30.00F
BURLINGTON     CLEAR     55  46  70 SW10      29.99F
KENOSHA        CLEAR     61  43  51 SW13      30.00F
FOND DU LAC    PTCLDY    59  44  57 SW12      29.93R
SHEBOYGAN      CLOUDY    62  46  55 SW12G22   29.91F
WEST BEND      PTCLDY    59  41  51 SW14G21   29.94S
JUNEAU         CLEAR     55  45  68 SW10      29.97R
$$

LSZ147-162-190600-
LAKE SUPERIOR

STATION/POSITION TIME  TEMP    WIND        PRES    WAVE
                       AIR SEA DIR/SP/G            HT/PER
                 (UTC) (F)     (DEG/KT/KT) (MB)    (FT/S)
W MID LAKE BUOY  0450   55 53              1008.3R   6/ 6
DEVILS ISLAND    0500   56     250/ 29/ 36 1010.2R
SAXON HARBOR     0440   55     230/  4/  9 1011.5R
$$

LMZ867-665-643>646-190600-
LAKE MICHIGAN

STATION/POSITION TIME  TEMP    WIND        PRES    WAVE
                       AIR SEA DIR/SP/G            HT/PER
                 (UTC) (F)     (DEG/KT/KT) (MB)    (FT/S)
S GREEN BAY BUOY 0500   61 58  220/ 16/ 21 1010.8R
N MID LAKE BUOY  0450   60 58  210/ 21/ 25 1010.0R  10/ 8
NORTHPORT PIER   0440   63     230/  4/ 11 1009.8S
KEWAUNEE LAKESHO 0454   64     240/ 10/ 16 1010.7R
SHEBOYGAN LAKESH 0500   64     230/ 17/ 20 1012.5F
PORT WASHINGTON  0440   64     230/  8/ 15 1014.6F
ATWATER BUOY     0239   62 52  220/ 14/ 17 1015.3
MILWAUKEE LAKESH 0500   63     240/ 15/ 18   N/A
S MID LAKE BUOY  0450   63 61  230/ 17/ 21 1015.9F   4/ 5
KENOSHA   LAKESH 0500   63     220/ 12/ 22 1015.6
$$

TC  - TEMPERATURE IN CELSIUS
VSB - VISIBILITY IN STATUTE MILES
WCI - WIND CHILL INDEX
HX  - HEAT INDEX





USA.gov is the U.S. government's official web portal to all federal, state and local government web resources and services.